Simultaneous Nadir Overpasses (SNOs) Predictions

Prediction of SNOs between AQUA and GOES-15 Satellite Orbit:

Table of predicted SNOs for the next 14.0 days since TLE Epoch: 12/17/2023
Index Date Time (AQUA) AQUA Lat,Lon GOES-15 Lat,Lon Distance(km) Time Diff (sec)
1 12/17/2023 21:41:21 -0.71, 64.23 -0.04, 61.20 345.00 80
2 12/18/2023 10:01:58 -0.37, 59.24 0.05, 61.29 233.34 80
3 12/20/2023 09:46:46 0.42, 62.95 0.05, 61.30 187.77 80
4 12/20/2023 22:07:14 0.64, 57.99 -0.06, 61.21 366.14 80
5 12/22/2023 21:52:01 -0.13, 61.71 -0.05, 61.23 54.71 80
6 12/24/2023 21:36:49 -0.92, 65.43 -0.04, 61.25 475.06 80
7 12/25/2023 09:57:25 -0.13, 60.44 0.05, 61.36 104.37 80
8 12/27/2023 09:42:11 0.65, 64.16 0.04, 61.39 316.06 80
9 12/27/2023 22:02:40 0.39, 59.20 -0.05, 61.29 237.06 80
10 12/29/2023 21:47:25 -0.36, 62.93 -0.05, 61.32 183.10 80
11 12/30/2023 10:08:01 -0.72, 57.95 0.06, 61.44 397.53 80
